Location: ??????
(55.0357°N, 38.6195°E)
Time: 11:28:59
(UTC+00:00)

Cosmos 1743 Rocket - Pass Details

Date: 14 April 2024
Orbit: 600 x 630 km, 82.6° (Epoch: 18 May)

Event Time Altitude Azimuth Distance (km) Brightness Sun altitude
Rises 00:21:46 0° 347° (NNW) 2,883 7.4 -15.7°
Reaches altitude 10° 00:24:01 10° 345° (NNW) 1,970 6.5 -15.5°
Maximum altitude 00:28:21 74° 261° (W) 634 3.4 -15.0°
Enters shadow 00:32:23 12° 177° (S) 1,846 5.6 -14.6°
